カタログに戻る

FLOCK 4H 12

運用中科学SSO
NORAD 66715·PAYLOAD·🇺🇸 United States

打ち上げ Nov 28, 2025 から Vandenberg Space Force Base

Loading…

次のパス (今後24時間)

TLE

最新Source: CelesTrak SupGP

元期: Sep 14, 2026, 06:45 UTC

1 66715C 25276BB  26257.28133102  .00007530  00000+0  33559-3 0  2578
2 66715  97.4118 329.5920 0002880  53.9133  16.1691 15.21492383    12

AllMySatでFLOCK 4H 12をリアルタイム追跡

Download on the App Store